TimeEST,TemperatureF,Dew PointF,Humidity,Sea Level PressureIn,VisibilityMPH,Wind Direction,Wind SpeedMPH,Gust SpeedMPH,PrecipitationIn,Events,Conditions,WindDirDegrees,DateUTC
12:15 AM,21.2,15.8,80,30.21,7.0,NNW,10.4,-,N/A,,Overcast,340,2013-02-21 05:15:00
12:35 AM,21.2,15.8,80,30.21,10.0,NW,11.5,-,N/A,,Overcast,310,2013-02-21 05:35:00
12:55 AM,21.2,15.8,80,30.22,10.0,NW,13.8,-,N/A,,Overcast,310,2013-02-21 05:55:00
1:15 AM,21.2,15.8,80,30.22,10.0,NNW,10.4,-,N/A,,Overcast,330,2013-02-21 06:15:00
1:35 AM,21.2,15.8,80,30.23,10.0,NNW,12.7,18.4,N/A,,Overcast,330,2013-02-21 06:35:00
1:55 AM,21.2,14.0,74,30.24,10.0,NNW,10.4,17.3,N/A,,Overcast,340,2013-02-21 06:55:00
2:15 AM,21.2,14.0,74,30.24,10.0,NNW,11.5,-,N/A,,Overcast,330,2013-02-21 07:15:00
2:35 AM,21.2,15.8,80,30.24,10.0,NW,8.1,-,N/A,,Overcast,320,2013-02-21 07:35:00
2:55 AM,21.2,14.0,74,30.24,10.0,NNW,12.7,18.4,N/A,,Overcast,330,2013-02-21 07:55:00
3:15 AM,21.2,14.0,74,30.24,10.0,NNW,10.4,17.3,N/A,,Overcast,330,2013-02-21 08:15:00
3:35 AM,21.2,14.0,74,30.23,10.0,NNW,9.2,-,N/A,,Overcast,330,2013-02-21 08:35:00
3:55 AM,21.2,14.0,74,30.24,10.0,NNW,11.5,17.3,N/A,,Overcast,340,2013-02-21 08:55:00
4:15 AM,21.2,15.8,80,30.23,10.0,NNW,12.7,16.1,N/A,,Overcast,330,2013-02-21 09:15:00
4:35 AM,21.2,14.0,74,30.23,10.0,NNW,9.2,-,N/A,,Overcast,340,2013-02-21 09:35:00
4:55 AM,21.2,15.8,80,30.24,10.0,NNW,9.2,16.1,N/A,,Overcast,340,2013-02-21 09:55:00
5:15 AM,21.2,15.8,80,30.25,10.0,NW,10.4,-,N/A,,Overcast,320,2013-02-21 10:15:00
5:35 AM,21.2,15.8,80,30.25,10.0,NW,9.2,-,N/A,,Overcast,320,2013-02-21 10:35:00
5:55 AM,21.2,15.8,80,30.26,10.0,NW,9.2,-,N/A,,Overcast,320,2013-02-21 10:55:00
6:15 AM,21.2,15.8,80,30.26,10.0,NNW,8.1,-,N/A,,Overcast,330,2013-02-21 11:15:00
6:35 AM,21.2,15.8,80,30.27,10.0,NNW,8.1,-,N/A,,Overcast,330,2013-02-21 11:35:00
6:55 AM,21.2,15.8,80,30.27,10.0,NW,10.4,-,N/A,,Overcast,320,2013-02-21 11:55:00
7:15 AM,21.2,15.8,80,30.28,10.0,North,8.1,-,N/A,,Overcast,350,2013-02-21 12:15:00
7:35 AM,21.2,15.8,80,30.29,10.0,NNW,8.1,-,N/A,,Overcast,330,2013-02-21 12:35:00
7:55 AM,21.2,15.8,80,30.28,10.0,North,5.8,-,N/A,,Overcast,360,2013-02-21 12:55:00
8:15 AM,21.2,15.8,80,30.29,10.0,North,6.9,-,N/A,,Overcast,0,2013-02-21 13:15:00
8:35 AM,21.2,15.8,80,30.29,10.0,North,6.9,-,N/A,,Overcast,10,2013-02-21 13:35:00
8:55 AM,21.2,15.8,80,30.29,10.0,North,8.1,-,N/A,,Overcast,360,2013-02-21 13:55:00
9:15 AM,21.2,15.8,80,30.28,10.0,NNE,8.1,-,N/A,,Overcast,30,2013-02-21 14:15:00
9:35 AM,21.2,15.8,80,30.29,10.0,NNE,8.1,-,N/A,,Overcast,20,2013-02-21 14:35:00
9:55 AM,21.2,15.8,80,30.29,10.0,North,8.1,-,N/A,,Overcast,10,2013-02-21 14:55:00
10:15 AM,21.2,17.6,86,30.31,10.0,ENE,5.8,-,N/A,,Overcast,70,2013-02-21 15:15:00
10:35 AM,23.0,15.8,74,30.31,10.0,North,3.5,-,N/A,,Overcast,350,2013-02-21 15:35:00
10:55 AM,23.0,17.6,80,30.31,10.0,ESE,2.3,-,N/A,,Overcast,120,2013-02-21 15:55:00
11:15 AM,23.0,17.6,80,30.29,10.0,East,5.8,-,N/A,,Overcast,80,2013-02-21 16:15:00
11:35 AM,23.0,15.8,74,30.31,10.0,NE,3.5,-,N/A,,Overcast,40,2013-02-21 16:35:00
11:55 AM,24.8,17.6,74,30.30,10.0,East,5.8,-,N/A,,Overcast,80,2013-02-21 16:55:00
12:15 PM,24.8,17.6,74,30.28,10.0,East,4.6,-,N/A,,Overcast,100,2013-02-21 17:15:00
12:35 PM,24.8,17.6,74,30.31,10.0,ESE,1.2,-,N/A,,Overcast,110,2013-02-21 17:35:00
12:55 PM,24.8,17.6,74,30.31,10.0,East,1.2,-,N/A,,Overcast,100,2013-02-21 17:55:00
1:15 PM,24.8,17.6,74,30.31,10.0,South,1.2,-,N/A,,Overcast,190,2013-02-21 18:15:00
1:35 PM,24.8,17.6,74,30.27,10.0,East,4.6,-,N/A,,Overcast,80,2013-02-21 18:35:00
1:55 PM,24.8,17.6,74,30.26,10.0,ENE,1.2,-,N/A,,Overcast,60,2013-02-21 18:55:00
2:15 PM,24.8,17.6,74,30.27,10.0,WSW,1.2,-,N/A,,Overcast,250,2013-02-21 19:15:00
2:37 PM,25.2,17.1,71,30.26,10.0,East,6.9,-,N/A,,Overcast,90,2013-02-21 19:37:00
2:55 PM,25.5,17.8,72,30.24,10.0,East,6.9,-,N/A,,Overcast,80,2013-02-21 19:55:00
3:14 PM,25.7,18.0,73,30.22,10.0,East,8.1,-,N/A,,Overcast,90,2013-02-21 20:14:00
3:54 PM,25.9,18.3,73,30.22,10.0,East,8.1,-,N/A,,Overcast,80,2013-02-21 20:54:00
4:15 PM,26.1,18.5,73,30.23,10.0,East,8.1,-,N/A,,Overcast,100,2013-02-21 21:15:00
4:35 PM,25.9,18.3,73,30.25,10.0,East,9.2,-,N/A,,Overcast,80,2013-02-21 21:35:00
4:55 PM,25.5,18.1,74,30.26,10.0,East,8.1,11.5,N/A,,Overcast,80,2013-02-21 21:55:00
5:14 PM,25.2,17.8,74,30.26,10.0,East,12.7,-,N/A,,Overcast,100,2013-02-21 22:14:00
5:34 PM,24.6,17.4,74,30.25,10.0,East,12.7,-,N/A,,Overcast,80,2013-02-21 22:34:00
5:55 PM,24.3,17.1,74,30.27,10.0,East,11.5,16.1,N/A,,Overcast,80,2013-02-21 22:55:00
6:14 PM,24.1,16.5,73,30.27,10.0,ESE,12.7,-,N/A,,Overcast,110,2013-02-21 23:14:00
6:35 PM,23.4,16.0,73,30.26,10.0,East,13.8,-,N/A,,Overcast,100,2013-02-21 23:35:00
6:55 PM,23.0,16.0,74,30.24,10.0,East,10.4,-,N/A,,Overcast,100,2013-02-21 23:55:00
7:15 PM,22.8,15.8,74,30.24,10.0,ESE,15.0,18.4,N/A,,Mostly Cloudy,110,2013-02-22 00:15:00
7:35 PM,21.7,16.5,80,30.24,10.0,ESE,11.5,-,N/A,,Scattered Clouds,110,2013-02-22 00:35:00
7:54 PM,21.6,16.0,79,30.24,10.0,East,11.5,20.7,N/A,,Scattered Clouds,100,2013-02-22 00:54:00
8:15 PM,21.4,15.3,77,30.24,10.0,ESE,12.7,-,N/A,,Scattered Clouds,120,2013-02-22 01:15:00
8:34 PM,20.8,14.9,78,30.22,10.0,East,10.4,16.1,N/A,,Scattered Clouds,100,2013-02-22 01:34:00
8:54 PM,20.7,15.1,79,30.21,10.0,ESE,12.7,23.0,N/A,,Scattered Clouds,110,2013-02-22 01:54:00
9:14 PM,20.7,14.9,78,30.21,10.0,ESE,13.8,17.3,N/A,,Scattered Clouds,110,2013-02-22 02:14:00
9:35 PM,20.7,15.3,80,30.21,10.0,ESE,10.4,-,N/A,,Mostly Cloudy,110,2013-02-22 02:35:00
9:54 PM,20.3,15.1,80,30.20,10.0,East,15.0,19.6,N/A,,Overcast,100,2013-02-22 02:54:00
10:14 PM,20.7,15.4,80,30.19,10.0,East,18.4,24.2,N/A,,Overcast,100,2013-02-22 03:14:00
10:35 PM,20.7,16.0,82,30.18,10.0,East,17.3,23.0,N/A,,Overcast,100,2013-02-22 03:35:00
10:55 PM,20.7,16.2,83,30.18,10.0,East,13.8,24.2,N/A,,Overcast,100,2013-02-22 03:55:00
11:14 PM,21.0,16.9,84,30.18,10.0,ESE,15.0,24.2,N/A,,Overcast,110,2013-02-22 04:14:00
11:35 PM,21.4,17.2,84,30.17,10.0,ESE,17.3,25.3,N/A,,Overcast,120,2013-02-22 04:35:00
11:55 PM,21.6,17.6,85,30.14,10.0,East,20.7,25.3,N/A,,Overcast,100,2013-02-22 04:55:00